This is the latest recevied weather packets stored in our database for station/object WB9FIU. If no packets are shown the sender has not sent any weather packets the latest 1 day(s).
| Time | Temp. | Humidity | Pressure | Rain* | Wind** | Luminosity | Snow |
|---|---|---|---|---|---|---|---|
| 1778078941 | 11.67° C | 70% | 1013.1 hPa | 0 mm | - | - | - |
| 1778078881 | 11.67° C | 69% | 1013 hPa | 0 mm | - | - | - |
| 1778078582 | 11.67° C | 69% | 1012.8 hPa | 0 mm | - | - | - |
| 1778078525 | 11.67° C | 68% | 1012.8 hPa | 0 mm | - | - | - |
| 1778078401 | 11.67° C | 71% | 1012.8 hPa | 0 mm | - | - | - |
| 1778078281 | 11.67° C | 71% | 1012.8 hPa | 0 mm | - | - | - |
| 1778078221 | 11.67° C | 71% | 1012.9 hPa | 0 mm | - | - | - |
| 1778078161 | 11.11° C | 70% | 1012.9 hPa | 0 mm | - | - | - |
| 1778078041 | 11.11° C | 69% | 1012.7 hPa | 0 mm | - | - | - |
| 1778077981 | 11.11° C | 68% | 1012.7 hPa | 0 mm | - | - | - |
| 1778077861 | 11.11° C | 68% | 1012.7 hPa | 0 mm | - | - | - |
| 1778077322 | 11.11° C | 69% | 1012.8 hPa | 0 mm | - | - | - |
| 1778076542 | 11.11° C | 71% | 1012.4 hPa | 0 mm | - | - | - |
| 1778076422 | 10.56° C | 72% | 1012.2 hPa | 0 mm | - | - | - |
| 1778075822 | 10.56° C | 74% | 1012.2 hPa | 0 mm | - | - | - |
| 1778075642 | 10.56° C | 72% | 1012.1 hPa | 0 mm | - | - | - |
| 1778075403 | 10.56° C | 74% | 1012.1 hPa | 0 mm | - | - | - |
| 1778074922 | 10° C | 77% | 1011.9 hPa | 0 mm | - | - | - |
| 1778074622 | 10° C | 78% | 1011.9 hPa | 0 mm | - | - | - |
| 1778074501 | 10° C | 75% | 1012 hPa | 0 mm | - | - | - |
| 1778074441 | 10° C | 75% | 1012.1 hPa | 0 mm | - | - | - |
| 1778074381 | 10° C | 74% | 1012 hPa | 0 mm | - | - | - |
| 1778074321 | 10° C | 75% | 1012 hPa | 0 mm | - | - | - |
| 1778074261 | 10° C | 77% | 1012 hPa | 0 mm | - | - | - |
| 1778074201 | 10° C | 78% | 1012.1 hPa | 0 mm | - | - | - |
* Rain latest hour (hover to see other rain measurements)
** Current wind speed in m/s (hover to see current wind gust speed)